Location: Alpha Ridge Park
(39.3209°N, 76.9128°W)
Time: 06:21:52
(UTC-04:00)

A-11 Canister half - Visible Passes

Search period start: 20 May 2019 00:00
Search period end: 30 May 2019 00:00
Orbit: 1525 x 1684 km, 47.3° (Epoch: 20 May)

Date Brightness Start Highest point End Pass type
(mag) Time Alt. Az. Time Alt. Az. Time Alt. Az.
20 May 9.4 20:47:20 10° WNW 20:57:03 66° SW 21:07:02 10° SE visible
20 May 10.6 22:54:26 10° W 23:00:52 19° SW 23:05:41 14° SSW visible
21 May 10.6 22:32:33 10° W 22:39:18 21° SW 22:45:23 12° SSW visible
22 May 10.6 22:10:42 10° W 22:17:43 22° SW 22:24:53 10° S visible
23 May 10.6 21:48:52 10° W 21:56:09 24° SW 22:03:34 10° S visible
24 May 10.6 21:27:04 10° WNW 21:34:35 25° SW 21:42:14 10° S visible
25 May 10.5 21:05:17 10° WNW 21:13:00 27° SW 21:20:54 10° S visible
26 May 10.5 20:43:31 10° WNW 20:51:26 28° SW 20:59:30 10° S visible
